timestamp,wind_dir_avg,wind_spd_avg,wind_spd_max_dir,wind_spd_gust,battery_voltage,lat,long
2021-10-24 00:04:00+00:00,199.0,6.01,199.0,7.94,12.65,47.59359,-54.27349
2021-10-24 00:14:01+00:00,187.0,6.19,202.0,7.28,12.57,47.59359,-54.27349
2021-10-24 00:24:01+00:00,200.0,6.56,212.0,7.49,12.57,47.59359,-54.27349
2021-10-24 00:34:01+00:00,198.0,5.49,209.0,6.52,12.57,47.59359,-54.27349
2021-10-24 00:44:01+00:00,207.0,7.03,202.0,7.95,12.57,47.59359,-54.27349
2021-10-24 00:54:01+00:00,207.0,7.2,206.0,8.29,12.57,47.59359,-54.27349
2021-10-24 01:04:01+00:00,212.0,6.32,206.0,7.28,12.57,47.59359,-54.27349
2021-10-24 01:14:01+00:00,213.0,5.64,210.0,6.34,12.57,47.59359,-54.27349
2021-10-24 01:24:01+00:00,207.0,7.18,211.0,8.08,12.57,47.59359,-54.27349
2021-10-24 01:34:01+00:00,209.0,6.91,211.0,7.77,12.57,47.59359,-54.27349
2021-10-24 01:44:01+00:00,213.0,8.27,213.0,9.28,12.57,47.59359,-54.27349
2021-10-24 01:54:01+00:00,215.0,8.64,208.0,10.04,12.57,47.59359,-54.27349
2021-10-24 02:04:01+00:00,210.0,8.52,209.0,9.52,12.57,47.59359,-54.27349
2021-10-24 02:14:01+00:00,217.0,7.13,214.0,8.1,12.57,47.59359,-54.27349
2021-10-24 02:24:01+00:00,219.0,6.45,218.0,7.93,12.57,47.59359,-54.27349
2021-10-24 02:34:01+00:00,215.0,6.63,215.0,7.48,12.57,47.59359,-54.27349
2021-10-24 02:44:01+00:00,219.0,6.0,221.0,6.77,12.57,47.59359,-54.27349
2021-10-24 02:54:01+00:00,210.0,6.94,213.0,8.01,12.57,47.59359,-54.27349
2021-10-24 03:04:01+00:00,208.0,7.4,206.0,8.21,12.57,47.59359,-54.27349
2021-10-24 03:14:00+00:00,205.0,7.48,207.0,8.08,12.57,47.59359,-54.27349
2021-10-24 03:24:00+00:00,204.0,7.71,205.0,8.55,12.57,47.59359,-54.27349
2021-10-24 03:34:00+00:00,205.0,8.44,204.0,9.24,12.57,47.59359,-54.27349
2021-10-24 03:44:00+00:00,183.0,5.04,211.0,5.96,12.57,47.59359,-54.27349
2021-10-24 03:54:00+00:00,180.0,5.83,199.0,6.95,12.57,47.59359,-54.27349
2021-10-24 04:04:00+00:00,190.0,5.97,208.0,7.12,12.57,47.59359,-54.27349
2021-10-24 04:14:01+00:00,203.0,5.5,208.0,6.31,12.57,47.59359,-54.27349
2021-10-24 04:24:01+00:00,208.0,5.52,215.0,6.9,12.57,47.59359,-54.27349
2021-10-24 04:34:01+00:00,167.0,4.45,161.0,5.06,12.57,47.59359,-54.27349
2021-10-24 04:44:01+00:00,179.0,3.98,211.0,5.08,12.57,47.59359,-54.27349
2021-10-24 04:54:01+00:00,179.0,3.48,217.0,4.9,12.57,47.59359,-54.27349
2021-10-24 05:04:01+00:00,229.0,4.77,228.0,5.78,12.57,47.59359,-54.27349
2021-10-24 05:14:01+00:00,218.0,2.43,226.0,4.51,12.57,47.59359,-54.27349
2021-10-24 05:24:01+00:00,219.0,3.06,234.0,4.58,12.57,47.59359,-54.27349
2021-10-24 05:34:01+00:00,154.0,2.14,142.0,2.92,12.57,47.59359,-54.27349
2021-10-24 05:44:01+00:00,173.0,2.08,229.0,3.41,12.57,47.59359,-54.27349
2021-10-24 05:54:01+00:00,196.0,1.65,205.0,1.89,12.57,47.59359,-54.27349
2021-10-24 06:04:01+00:00,219.0,0.96,224.0,1.39,12.57,47.59359,-54.27349
2021-10-24 06:14:01+00:00,138.0,0.9,127.0,1.3,12.49,47.59359,-54.27349
2021-10-24 06:24:01+00:00,111.0,0.35,118.0,0.63,12.49,47.59359,-54.27349
2021-10-24 06:34:01+00:00,208.0,1.19,215.0,1.57,12.49,47.59359,-54.27349
2021-10-24 06:44:01+00:00,256.0,0.55,259.0,0.89,12.49,47.59359,-54.27349
2021-10-24 06:54:01+00:00,169.0,1.37,176.0,1.61,12.49,47.59359,-54.27349
2021-10-24 07:04:01+00:00,154.0,0.78,159.0,1.11,12.49,47.59359,-54.27349
2021-10-24 07:14:01+00:00,32.0,0.88,36.0,1.18,12.49,47.59359,-54.27349
2021-10-24 07:24:01+00:00,197.0,1.0,194.0,1.29,12.49,47.59359,-54.27349
2021-10-24 07:34:01+00:00,194.0,2.24,141.0,2.89,12.49,47.59359,-54.27349
2021-10-24 07:44:01+00:00,197.0,2.47,199.0,2.74,12.49,47.59359,-54.27349
2021-10-24 07:54:01+00:00,186.0,2.8,177.0,5.43,12.49,47.59359,-54.27349
2021-10-24 08:04:01+00:00,203.0,2.59,213.0,3.16,12.49,47.59359,-54.27349
2021-10-24 08:14:01+00:00,171.0,3.68,158.0,4.47,12.49,47.59359,-54.27349
2021-10-24 08:24:01+00:00,190.0,4.44,195.0,4.7,12.49,47.59359,-54.27349
2021-10-24 08:34:01+00:00,189.0,4.44,193.0,4.69,12.49,47.59359,-54.27349
2021-10-24 08:44:01+00:00,157.0,4.47,159.0,5.05,12.49,47.59359,-54.27349
2021-10-24 08:54:01+00:00,158.0,4.63,162.0,5.15,12.49,47.59359,-54.27349
2021-10-24 09:04:01+00:00,202.0,5.9,213.0,7.52,12.49,47.59359,-54.27349
2021-10-24 09:14:01+00:00,221.0,6.47,236.0,9.46,12.41,47.59359,-54.27349
2021-10-24 09:24:01+00:00,218.0,6.89,231.0,8.11,12.41,47.59359,-54.27349
2021-10-24 09:34:01+00:00,194.0,6.58,207.0,7.73,12.41,47.59359,-54.27349
2021-10-24 09:44:01+00:00,178.0,5.51,169.0,6.52,12.41,47.59359,-54.27349
2021-10-24 09:54:01+00:00,198.0,6.08,215.0,8.05,12.41,47.59359,-54.27349
2021-10-24 10:04:01+00:00,191.0,5.43,216.0,6.81,12.41,47.59359,-54.27349
2021-10-24 10:14:01+00:00,205.0,5.77,205.0,7.58,12.41,47.59359,-54.27349
2021-10-24 10:24:01+00:00,195.0,4.78,218.0,6.18,12.41,47.59359,-54.27349
2021-10-24 10:34:01+00:00,208.0,6.21,209.0,7.09,12.41,47.59359,-54.27349
2021-10-24 10:44:01+00:00,215.0,6.51,213.0,7.34,12.41,47.59359,-54.27349
2021-10-24 10:54:01+00:00,171.0,5.9,168.0,6.83,12.41,47.59359,-54.27349
2021-10-24 11:04:01+00:00,200.0,6.6,210.0,7.88,12.41,47.59359,-54.27349
2021-10-24 11:14:00+00:00,197.0,7.86,206.0,9.24,12.41,47.59359,-54.27349
2021-10-24 11:24:00+00:00,177.0,6.13,204.0,7.49,12.41,47.59359,-54.27349
2021-10-24 11:34:00+00:00,210.0,8.33,231.0,11.75,12.41,47.59359,-54.27349
2021-10-24 11:44:00+00:00,210.0,5.83,224.0,7.05,12.41,47.59359,-54.27349
2021-10-24 11:54:00+00:00,169.0,6.14,165.0,6.89,12.41,47.59359,-54.27349
2021-10-24 12:04:00+00:00,193.0,7.07,204.0,8.52,12.41,47.59359,-54.27349
2021-10-24 12:14:01+00:00,206.0,6.58,207.0,7.91,12.49,47.59359,-54.27349
2021-10-24 12:24:01+00:00,198.0,7.82,206.0,8.73,12.49,47.59359,-54.27349
2021-10-24 12:34:01+00:00,163.0,7.35,161.0,7.91,12.49,47.59359,-54.27349
2021-10-24 12:44:01+00:00,190.0,8.35,204.0,9.46,12.49,47.59359,-54.27349
2021-10-24 12:54:01+00:00,187.0,8.59,202.0,9.89,12.49,47.59359,-54.27349
2021-10-24 13:04:01+00:00,203.0,7.42,208.0,8.33,12.49,47.59359,-54.27349
2021-10-24 13:14:00+00:00,187.0,6.59,208.0,7.72,12.97,47.59359,-54.27349
2021-10-24 13:24:00+00:00,208.0,6.16,211.0,7.03,12.97,47.59359,-54.27349
2021-10-24 13:34:00+00:00,216.0,6.52,216.0,7.96,12.97,47.59359,-54.27349
2021-10-24 13:44:00+00:00,235.0,7.7,249.0,10.47,12.97,47.59359,-54.27349
2021-10-24 13:54:00+00:00,226.0,6.36,235.0,8.14,12.97,47.59359,-54.27349
2021-10-24 14:04:00+00:00,218.0,6.62,215.0,7.76,12.97,47.59359,-54.27349
2021-10-24 14:14:01+00:00,210.0,8.77,222.0,10.51,13.13,47.59359,-54.27349
2021-10-24 14:24:01+00:00,205.0,8.77,205.0,9.66,13.13,47.59359,-54.27349
2021-10-24 14:34:01+00:00,218.0,8.96,231.0,11.44,13.13,47.59359,-54.27349
2021-10-24 14:44:01+00:00,213.0,11.13,213.0,12.59,13.13,47.59359,-54.27349
2021-10-24 14:54:01+00:00,230.0,7.93,237.0,9.98,13.13,47.59359,-54.27349
2021-10-24 15:04:01+00:00,242.0,8.96,246.0,10.58,13.13,47.59359,-54.27349
2021-10-24 15:14:01+00:00,228.0,9.03,232.0,10.62,13.21,47.59359,-54.27349
2021-10-24 15:24:01+00:00,215.0,9.23,227.0,10.79,13.21,47.59359,-54.27349
2021-10-24 15:34:01+00:00,220.0,8.67,226.0,10.3,13.21,47.59359,-54.27349
2021-10-24 15:44:01+00:00,218.0,10.48,217.0,12.03,13.21,47.59359,-54.27349
2021-10-24 15:54:01+00:00,214.0,10.49,217.0,11.85,13.21,47.59359,-54.27349
2021-10-24 16:04:01+00:00,211.0,11.21,211.0,12.74,13.21,47.59359,-54.27349
2021-10-24 16:14:01+00:00,213.0,12.06,211.0,13.71,13.21,47.59359,-54.27349
2021-10-24 16:24:01+00:00,214.0,10.87,214.0,12.08,13.21,47.59359,-54.27349
2021-10-24 16:34:01+00:00,212.0,10.14,211.0,11.39,13.21,47.59359,-54.27349
2021-10-24 16:44:01+00:00,216.0,10.22,212.0,11.37,13.21,47.59359,-54.27349
2021-10-24 16:54:01+00:00,210.0,10.19,212.0,11.39,13.21,47.59359,-54.27349
2021-10-24 17:04:01+00:00,215.0,9.07,226.0,10.66,13.21,47.59359,-54.27349
2021-10-24 17:14:01+00:00,215.0,8.4,210.0,9.69,13.84,47.59359,-54.27349
2021-10-24 17:24:01+00:00,211.0,9.35,209.0,10.11,13.84,47.59359,-54.27349
2021-10-24 17:34:01+00:00,210.0,9.21,207.0,10.23,13.84,47.59359,-54.27349
2021-10-24 17:44:01+00:00,208.0,9.9,210.0,11.28,13.84,47.59359,-54.27349
2021-10-24 17:54:01+00:00,209.0,10.05,209.0,11.54,13.84,47.59359,-54.27349
2021-10-24 18:04:01+00:00,209.0,11.66,213.0,13.26,13.84,47.59359,-54.27349
2021-10-24 18:14:01+00:00,209.0,11.56,210.0,12.76,14.24,47.59359,-54.27349
2021-10-24 18:24:01+00:00,208.0,10.91,213.0,12.57,14.24,47.59359,-54.27349
2021-10-24 18:34:01+00:00,227.0,9.98,230.0,11.38,14.24,47.59359,-54.27349
2021-10-24 18:44:01+00:00,223.0,10.87,222.0,12.94,14.24,47.59359,-54.27349
2021-10-24 18:54:01+00:00,229.0,9.87,237.0,11.94,14.24,47.59359,-54.27349
2021-10-24 19:04:01+00:00,224.0,11.18,219.0,13.3,14.24,47.59359,-54.27349
2021-10-24 19:14:01+00:00,228.0,10.93,224.0,13.04,13.92,47.59359,-54.27349
2021-10-24 19:24:01+00:00,209.0,11.18,213.0,12.62,13.92,47.59359,-54.27349
2021-10-24 19:34:01+00:00,213.0,9.74,212.0,11.33,13.92,47.59359,-54.27349
2021-10-24 19:44:01+00:00,207.0,10.53,214.0,11.72,13.92,47.59359,-54.27349
2021-10-24 19:54:01+00:00,212.0,11.68,212.0,14.25,13.92,47.59359,-54.27349
2021-10-24 20:04:01+00:00,211.0,11.23,215.0,13.1,13.92,47.59359,-54.27349
2021-10-24 20:14:01+00:00,213.0,12.26,213.0,13.89,13.29,47.59359,-54.27349
2021-10-24 20:24:01+00:00,218.0,10.5,215.0,11.91,13.29,47.59359,-54.27349
2021-10-24 20:34:01+00:00,224.0,10.03,227.0,11.88,13.29,47.59359,-54.27349
2021-10-24 20:44:01+00:00,229.0,9.61,229.0,11.68,13.29,47.59359,-54.27349
2021-10-24 20:54:01+00:00,231.0,10.12,226.0,11.99,13.29,47.59359,-54.27349
2021-10-24 21:04:01+00:00,231.0,11.37,233.0,15.1,13.29,47.59359,-54.27349
2021-10-24 21:14:01+00:00,237.0,11.09,239.0,13.56,12.73,47.59359,-54.27349
2021-10-24 21:24:01+00:00,230.0,10.09,226.0,11.95,12.73,47.59359,-54.27349
2021-10-24 21:34:01+00:00,233.0,12.59,236.0,15.91,12.73,47.59359,-54.27349
2021-10-24 21:44:01+00:00,232.0,10.96,238.0,13.89,12.73,47.59359,-54.27349
2021-10-24 21:54:01+00:00,229.0,11.43,237.0,13.26,12.73,47.59359,-54.27349
2021-10-24 22:04:01+00:00,238.0,13.07,237.0,18.19,12.73,47.59359,-54.27349
2021-10-24 22:14:01+00:00,249.0,17.48,249.0,19.92,12.65,47.59359,-54.27349
2021-10-24 22:24:01+00:00,246.0,14.69,246.0,19.47,12.65,47.59359,-54.27349
2021-10-24 22:34:01+00:00,243.0,14.24,246.0,19.19,12.65,47.59359,-54.27349
2021-10-24 22:44:01+00:00,247.0,16.34,249.0,19.72,12.65,47.59359,-54.27349
2021-10-24 22:54:01+00:00,254.0,16.34,260.0,19.14,12.65,47.59359,-54.27349
2021-10-24 23:04:01+00:00,248.0,14.63,247.0,19.43,12.65,47.59359,-54.27349
2021-10-24 23:14:00+00:00,252.0,14.78,251.0,19.4,12.65,47.59359,-54.27349
2021-10-24 23:24:00+00:00,248.0,15.13,253.0,19.4,12.65,47.59359,-54.27349
2021-10-24 23:34:00+00:00,250.0,16.02,251.0,19.08,12.65,47.59359,-54.27349
2021-10-24 23:44:00+00:00,249.0,12.69,242.0,14.92,12.65,47.59359,-54.27349
2021-10-24 23:54:00+00:00,255.0,16.46,256.0,18.75,12.65,47.59359,-54.27349
